SCP
0 0 0 0 0 0 0 0 0 0 0 0 0 0 0 0 0 0 0 0 0 0 0 0 0 0 0 0 0 0 0 0 0 0 0 0 0 0 0 0 0 0 0 0
0 0 0 0 0 0 0 0 0 0 0 0 0 0 0 0 0 0 0 0 0 0 0 0 0 0 0 0 0 0 0 0 0 0 0 0 0 0 0 0 0 0 0 0
0 0 0 0 0 0 0 0 0 0 0 0 0 0 0 0 0 0 0 0 0 0 0 0 0 0 0 0 0 0 0 0 0 0 0 0 0 0 0 0 0 0 0 0
0 0 0 0 0 0 0 0 0 0 0 0 0 0 0 0 0 0 0 0 0 0 0 0 0 0 0 0 0 0 0 0 0 0 0 0 0 0 0 0 0 0 0 0
0 0 0 0 0 0 0 0 0 0 0 0 0 0 0 0 0 0 0 0 0 0 0 0 0 0 0 0 0 0 0 0 0 0 0 0 0 0 0 0 0 0 0 0
0 0 0 0 0 0 0 0 0 0 0 0 0 0 0 0 0 0 0 0 0 0 0 0 0 0 0 0 0 0 0 0 0 0 0 0 0 0 0 0 0 0 0 0
0 0 0 0 0 0 0 0 0 0 0 0 0 0 0 0 0 0 0 0 0 0 0 0 0 0 0 0 0 0 0 0 0 0 0 0 0 0 0 0 0 0 0 0
0 0 0 0 0 0 0 0 0 0 0 0 0 0 0 0 0 0 0 0 0 0 0 0 0 0 0 0 0 0 0 0 0 0 0 0 0 0 0 0 0 0 0 0
0 0 0 0 0 0 0 0 0 0 0 0 0 0 0 0 0 0 0 0 0 0 0 0 0 0 0 0 0 0 0 0 0 0 0 0 0 0 0 0 0 0 0 0
0 0 0 0 0 0 0 0 0 0 0 0 0 0 0 0 0 0 0 0 0 0 0 0 0 0 0 0 0 0 0 0 0 0 0 0 0 0 0 0 0 0 0 0
0 0 0 0 0 0 0 0 0 0 0 0 0 0 0 0 0 0 0 0 0 0 0 0 0 0 0 0 0 0 0 0 0 0 0 0 0 0 0 0 0 0 0 0
0 0 0 0 0 0 0 0 0 0 0 0 0 0 0 0 0 0 0 0 0 0 0 0 0 0 0 0 0 0 0 0 0 0 0 0 0 0 0 0 0 0 0 0
0 0 0 0 0 0 0 0 0 0 0 0 0 0 0 0 0 0 0 0 0 0 0 0 0 0 0 0 0 0 0 0 0 0 0 0 0 0 0 0 0 0 0 0
0 0 0 0 0 0 0 0 0 0 0 0 0 0 0 0 0 0 0 0 0 0 0 0 0 0 0 0 0 0 0 0 0 0 0 0 0 0 0 0 0 0 0 0
0 0 0 0 0 0 0 0 0 0 0 0 0 0 0 0 0 0 0 0 0 0 0 0 0 0 0 0 0 0 0 0 0 0 0 0 0 0 0 0 0 0 0 0
0 0 0 0 0 0 0 0 0 0 0 0 0 0 0 0 0 0 0 0 0 0 0 0 0 0 0 0 0 0 0 0 0 0 0 0 0 0 0 0 0 0 0 0
0 0 0 0 0 0 0 0 0 0 0 0 0 0 0 0 0 0 0 0 0 0 0 0 0 0 0 0 0 0 0 0 0 0 0 0 0 0 0 0 0 0 0 0
0 0 0 0 0 0 0 0 0 0 0 0 0 0 0 0 0 0 0 0 0 0 0 0 0 0 0 0 0 0 0 0 0 0 0 0 0 0 0 0 0 0 0 0
0 0 0 0 0 0 0 0 0 0 0 0 0 0 0 0 0 0 0 0 0 0 0 0 0 0 0 0 0 0 0 0 0 0 0 0 0 0 0 0 0 0 0 0
0 0 0 0 0 0 0 0 0 0 0 0 0 0 0 0 0 0 0 0 0 0 0 0 0 0 0 0 0 0 0 0 0 0 0 0 0 0 0 0 0 0 0 0
0 0 0 0 0 0 0 0 0 0 0 0 0 0 0 0 0 0 0 0 0 0 0 0 0 0 0 0 0 0 0 0 0 0 0 0 0 0 0 0 0 0 0 0
0 0 0 0 0 0 0 0 0 0 0 0 0 0 0 0 0 0 0 0 0 0 0 0 0 0 0 0 0 0 0 0 0 0 0 0 0 0 0 0 0 0 0 0
0 0 0 0 0 0 0 0 0 0 0 0 0 0 0 0 0 0 0 0 0 0 0 0 0 0 0 0 0 0 0 0 0 0 0 0 0 0 0 0 0 0 0 0
0 0 0 0 0 0 0 0 0 0 0 0 0 0 0 0 0 0 0 0 0 0 0 0 0 0 0 0 0 0 0 0 0 0 0 0 0 0 0 0 0 0 0 0
0 0 0 0 0 0 0 0 0 0 0 0 0 0 0 0 0 0 0 0 0 0 0 0 0 0 0 0 0 0 0 0 0 0 0 0 0 0 0 0 0 0 0 0
0 0 0 0 0 0 0 0 0 0 0 0 0 0 0 0 0 0 0 0 0 0 0 0 0 0 0 0 0 0 0 0 0 0 0 0 0 0 0 0 0 0 0 0
Wind_Speed
2 3 3 5 4 2 3 3 3 3 2 1 4 6 6 3 3 4 4 4 4 4 2 1 1 2 2 3 3 3 3 3 3 2 1 1 1 1 1 1 1 1 1 1
3 3 4 2 2 2 2 2 2 2 2 0 3 6 6 4 5 6 6 6 5 3 1 1 1 2 3 3 3 3 3 3 3 2 1 1 1 0 1 1 1 1 1 1
5 2 1 3 2 3 2 3 3 2 2 2 3 6 4 3 3 3 4 5 4 5 5 3 3 3 3 3 4 3 3 3 2 2 2 2 2 1 1 1 1 1 1 0
2 2 1 2 2 4 4 3 3 2 0 2 1 5 6 3 3 4 5 4 5 4 4 4 3 3 4 4 3 3 3 3 3 3 3 3 1 1 1 1 1 1 1 1
2 0 1 3 3 4 3 1 2 1 2 2 1 3 8 2 5 6 5 5 5 4 4 4 4 5 4 4 4 4 3 3 3 3 3 3 2 1 0 0 0 1 1 1
1 1 1 2 1 3 4 4 4 3 3 3 4 4 8 5 6 4 3 4 4 4 3 3 3 3 2 2 3 3 3 3 3 3 3 3 3 2 1 0 0 1 1 1
2 2 1 1 2 2 3 4 2 3 2 6 2 4 10 6 4 5 5 4 3 3 3 3 3 3 3 3 3 3 3 3 3 3 3 3 3 3 3 2 2 1 1 1
2 4 2 1 3 4 3 5 6 5 5 5 2 7 9 4 3 3 3 3 2 2 3 3 3 4 4 4 4 4 4 3 3 3 3 2 2 2 2 2 2 2 2 2
5 4 1 1 1 5 4 3 3 4 1 3 6 7 9 2 2 2 2 2 2 3 2 2 2 3 3 4 4 4 4 3 3 3 2 2 2 2 2 2 2 2 2 2
5 3 2 1 2 2 3 6 4 4 3 5 6 6 6 4 4 3 2 3 3 2 2 2 2 2 3 3 3 3 3 3 3 3 2 2 2 2 2 2 2 2 2 2
4 4 2 0 4 5 3 3 3 3 3 4 4 8 5 6 4 4 5 4 4 3 3 2 2 2 1 1 2 2 2 2 2 3 2 2 2 2 2 2 2 2 2 3
4 4 2 4 2 1 3 5 6 5 4 4 3 9 4 3 3 3 4 4 3 3 2 2 2 1 1 2 2 2 2 3 3 3 2 2 2 2 2 2 3 2 2 3
5 4 1 3 2 0 2 3 4 4 3 4 5 9 2 1 2 2 3 3 3 2 2 1 1 2 2 3 3 3 3 3 2 2 2 2 2 2 3 3 2 2 2 3
5 4 6 7 5 4 4 5 5 6 5 6 9 10 7 5 4 4 4 4 3 3 3 2 3 3 3 3 3 3 3 2 2 2 3 3 3 3 3 2 2 2 3 3
4 4 4 3 2 2 5 7 8 10 10 10 9 10 11 7 6 5 4 4 3 4 4 4 4 4 3 3 3 3 3 2 2 2 3 3 3 2 2 2 2 2 3 3
2 3 2 2 2 3 6 8 10 10 9 10 10 14 9 5 4 4 5 4 5 5 5 5 4 4 4 4 4 3 3 3 3 3 3 3 2 2 2 3 3 2 3 3
3 4 3 3 1 2 9 9 11 8 8 9 13 14 4 4 6 7 6 6 7 7 6 5 5 5 5 5 4 4 4 3 3 3 3 3 3 3 3 3 2 3 3 3
5 4 3 1 1 7 8 2 7 8 8 9 8 7 5 7 6 6 6 6 7 7 6 6 5 5 4 4 3 3 3 3 3 4 4 3 3 3 3 3 3 3 2 3
4 6 3 2 3 9 8 3 5 6 8 8 10 9 6 3 4 6 5 5 7 7 6 6 5 5 4 4 3 3 3 3 3 4 4 4 4 3 3 3 3 3 2 3
2 3 4 3 3 7 6 2 2 2 7 5 6 8 5 1 3 6 3 3 5 5 4 4 3 3 4 4 3 3 4 4 5 5 4 4 3 4 4 3 3 2 2 3
3 2 4 4 5 10 6 1 3 3 7 3 4 5 4 6 7 5 3 4 4 4 4 3 3 3 4 3 3 4 4 5 5 3 3 3 3 3 3 2 2 1 2 2
7 6 6 5 5 10 3 5 7 7 3 2 3 4 5 6 6 5 5 5 4 4 4 3 3 3 3 3 4 4 5 4 2 2 3 3 2 2 2 2 1 1 2 1
7 8 7 9 9 5 5 6 5 3 4 4 3 4 4 4 5 5 5 5 5 4 4 3 3 3 2 3 4 4 4 2 2 2 2 2 2 2 2 2 2 1 1 1
4 2 3 5 8 6 6 6 5 4 5 5 4 4 4 5 6 6 5 5 5 4 3 2 2 3 3 2 3 3 2 2 2 2 2 2 2 2 2 2 2 2 2 2
5 5 4 6 8 6 6 7 8 6 5 5 5 4 5 6 6 5 5 5 5 4 3 2 3 3 4 2 2 2 2 2 2 2 2 2 2 2 1 1 2 2 3 3
6 8 8 9 8 6 6 5 5 5 6 6 6 6 5 6 6 5 5 5 4 4 3 3 3 3 3 2 2 2 2 3 3 2 2 2 1 1 1 1 1 2 3 4
Wind_Direction
60 91 201 215 207 198 162 178 229 254 293 223 238 260 267 254 221 225 226 222 226 235 246 211 160 140 126 118 127 139 134 132 122 112 110 99 93 67 50 38 36 50 58 63
71 239 237 192 170 146 154 192 245 295 359 296 279 276 266 238 225 218 216 218 218 221 236 199 147 144 152 154 158 154 153 149 144 140 131 117 133 133 73 27 28 28 42 56
176 243 193 148 143 173 222 206 214 243 344 12 334 300 271 258 238 242 223 214 211 206 209 202 178 179 173 174 175 169 162 148 142 120 95 73 57 47 46 16 357 345 354 24
218 284 129 147 193 178 235 226 201 204 105 292 8 286 275 252 269 249 241 224 222 219 208 200 190 189 192 193 177 170 166 155 145 134 138 142 152 183 219 254 288 325 336 338
239 238 161 197 213 171 186 109 141 163 160 298 273 242 279 274 257 251 240 227 222 219 209 204 202 202 199 185 174 172 164 162 158 156 162 162 174 194 175 324 341 337 320 312
253 264 199 204 167 145 132 75 58 51 71 263 230 205 272 237 231 241 232 226 222 220 219 217 213 189 183 170 163 163 166 175 169 166 172 173 180 180 164 228 277 318 324 317
299 282 296 110 109 88 107 103 41 355 339 252 221 217 251 250 241 225 220 230 231 214 205 204 191 182 187 180 176 171 174 183 180 178 186 190 194 192 197 206 220 259 289 287
202 264 228 203 176 172 172 151 165 199 228 273 258 237 254 261 269 254 233 231 229 222 207 206 202 195 197 196 187 180 184 192 190 189 196 191 189 194 208 213 214 228 242 256
186 244 303 210 211 144 148 180 163 134 137 273 265 280 296 273 277 253 238 229 236 236 228 223 218 207 201 201 201 195 193 195 195 196 195 197 193 198 214 226 222 232 244 261
165 215 276 287 104 45 143 143 119 144 181 251 278 267 258 265 249 245 234 237 245 245 247 251 237 223 213 209 207 199 193 197 196 191 195 208 211 214 218 220 235 242 244 247
156 170 291 354 187 185 139 143 147 152 173 186 261 267 232 230 227 223 236 243 249 254 251 255 257 239 214 202 195 198 194 190 196 200 202 206 216 219 218 227 238 244 246 243
167 146 224 249 246 201 181 177 159 173 220 193 213 268 278 247 260 238 251 261 265 260 259 261 257 237 209 206 209 209 206 204 208 203 203 207 211 212 222 236 241 240 248 252
149 139 111 335 327 222 214 196 176 148 143 183 206 262 300 336 310 265 256 269 277 280 280 277 257 236 228 218 216 217 217 217 215 203 202 208 211 216 229 238 239 238 244 256
136 155 186 205 219 188 210 206 184 170 198 219 227 253 284 290 288 291 285 277 274 269 261 261 259 247 241 234 221 219 228 219 216 208 208 216 218 220 229 240 245 246 247 254
133 188 218 246 252 209 228 219 202 208 211 219 240 242 255 257 256 261 265 271 269 268 266 256 248 241 239 240 235 223 226 220 213 212 221 229 231 229 232 243 251 253 252 254
136 169 173 264 245 241 262 243 222 228 229 236 256 264 255 254 247 256 257 258 261 261 261 258 253 246 240 233 231 228 227 224 211 215 227 230 227 229 233 239 242 246 253 258
164 150 159 249 277 315 266 230 207 212 213 204 232 250 254 250 246 244 246 245 251 260 264 257 250 246 240 231 222 220 221 221 216 223 227 221 216 224 231 235 240 247 253 256
159 145 152 176 79 242 249 205 191 213 239 222 239 258 244 244 256 254 238 235 250 258 257 254 250 251 249 232 225 220 215 214 219 226 226 222 216 224 231 230 239 252 255 250
172 154 142 151 229 273 288 236 180 198 263 226 231 254 263 278 304 281 243 227 236 242 245 244 242 243 241 231 219 206 216 216 221 228 226 222 215 222 228 233 242 250 254 264
106 134 143 159 202 245 256 241 188 126 283 251 214 237 247 180 263 269 263 251 249 251 253 252 246 240 238 234 202 197 216 217 227 229 228 223 214 216 226 234 243 253 252 264
140 148 181 191 228 262 253 190 129 173 250 273 209 223 208 210 230 267 292 280 267 264 263 258 245 243 241 221 192 209 219 226 231 229 225 223 215 215 225 233 236 234 254 272
175 174 190 171 212 252 205 146 190 222 257 240 228 225 226 246 269 282 284 282 285 282 275 261 249 255 250 210 195 217 230 232 218 210 216 223 220 217 213 203 227 228 232 252
201 193 187 196 218 243 186 206 231 241 253 255 249 253 239 258 271 278 280 280 280 275 272 261 244 256 255 219 202 221 240 216 195 199 213 220 225 215 205 196 205 220 225 239
242 200 191 247 259 255 248 253 260 247 249 263 258 254 239 251 263 272 276 281 281 276 269 261 248 253 260 243 228 227 230 200 185 200 215 215 207 207 205 204 204 212 224 238
211 173 202 250 269 287 265 240 246 254 258 267 264 249 243 246 259 259 266 271 271 273 269 250 239 245 254 254 247 233 207 181 191 206 211 214 208 197 199 217 225 228 232 233
192 186 192 229 228 218 252 254 239 242 251 254 261 268 253 239 251 257 258 260 261 261 259 255 248 249 253 250 249 234 206 185 183 199 207 201 187 188 194 214 305 290 272 284